| time (UTC) | temp F | wind direction | speed knots | gust knots | rain 1hr in | rain 24hr in | rain mn in | humidity % | barometer mb |
| 20260504100508 | 47 | 263 | 2.6 | 5.2 | 0.00 | 0.00 | 0.00 | 52 | 1012.9 |
| 20260504082003 | 47 | 248 | 1.7 | 5.2 | 0.00 | 0.00 | 0.00 | 51 | 1013.2 |
| 20260504081513 | 47 | 253 | 0.9 | 5.2 | 0.00 | 0.00 | 0.00 | 52 | 1013.3 |
| 20260504081005 | 48 | 282 | 0.9 | 5.2 | 0.00 | 0.00 | 0.00 | 52 | 1013.3 |
| 20260504080506 | 48 | 245 | 0.9 | 4.3 | 0.00 | 0.00 | 0.00 | 51 | 1013.3 |
| 20260504050508 | 50 | 257 | 3.5 | 7.8 | 0.00 | 0.00 | 0.00 | 47 | 1013.2 |
| 20260504045509 | 50 | 255 | 4.3 | 7.8 | 0.00 | 0.00 | 0.00 | 47 | 1013.3 |
| 20260504045010 | 50 | 214 | 4.3 | 7.8 | 0.00 | 0.00 | 0.00 | 48 | 1013.2 |
| 20260504044515 | 49 | 257 | 4.3 | 6.1 | 0.00 | 0.00 | 0.00 | 48 | 1013.3 |
| 20260504044010 | 49 | 249 | 3.5 | 6.1 | 0.00 | 0.00 | 0.00 | 48 | 1013.2 |
| 20260504043507 | 49 | 256 | 2.6 | 5.2 | 0.00 | 0.00 | 0.00 | 49 | 1013.2 |
| 20260504043021 | 49 | 259 | 2.6 | 5.2 | 0.00 | 0.00 | 0.00 | 50 | 1013.2 |
| 20260504042505 | 48 | 267 | 1.7 | 4.3 | 0.00 | 0.00 | 0.00 | 50 | 1013.2 |
| 20260504042005 | 48 | 246 | 1.7 | 3.5 | 0.00 | 0.00 | 0.00 | 51 | 1013.1 |
| 20260504041524 | 48 | 267 | 1.7 | 3.5 | 0.00 | 0.00 | 0.00 | 53 | 1013.1 |
| 20260504041006 | 47 | 254 | 1.7 | 3.5 | 0.00 | 0.00 | 0.00 | 52 | 1013.1 |
| 20260504040507 | 47 | 279 | 0.9 | 3.5 | 0.00 | 0.00 | 0.00 | 52 | 1013.1 |
| 20260504040027 | 47 | 281 | 0.0 | 1.7 | 0.00 | 0.00 | 0.00 | 54 | 1013.1 |
| 20260504035513 | 47 | 267 | 0.0 | 1.7 | 0.00 | 0.00 | 0.00 | 54 | 1013.1 |
| 20260504035008 | 47 | 275 | 0.0 | 1.7 | 0.00 | 0.00 | 0.00 | 53 | 1013.1 |
| 20260504034533 | 47 | 269 | 0.0 | 1.7 | 0.00 | 0.00 | 0.00 | 53 | 1013.0 |
| 20260504034008 | 47 | 269 | 0.0 | 1.7 | 0.00 | 0.00 | 0.00 | 52 | 1012.9 |
| 20260504033508 | 47 | 275 | 0.0 | 0.9 | 0.00 | 0.00 | 0.00 | 53 | 1012.8 |
| 20260504033041 | 48 | 288 | 0.0 | 0.0 | 0.00 | 0.00 | 0.00 | 53 | 1012.8 |
| 20260504032506 | 48 | 288 | 0.0 | 0.9 | 0.00 | 0.00 | 0.00 | 52 | 1012.9 |
| 20260504032006 | 48 | 288 | 0.0 | 0.9 | 0.00 | 0.00 | 0.00 | 53 | 1012.8 |
| 20260504031507 | 48 | 263 | 0.0 | 0.9 | 0.00 | 0.00 | 0.00 | 51 | 1012.8 |
| 20260504031005 | 48 | 263 | 0.0 | 0.9 | 0.00 | 0.00 | 0.00 | 50 | 1012.8 |
| 20260504030502 | 48 | 247 | 0.0 | 1.7 | 0.00 | 0.00 | 0.00 | 50 | 1012.8 |
| 20260504030007 | 49 | 286 | 0.0 | 2.6 | 0.00 | 0.00 | 0.00 | 50 | 1012.8 |
| 20260504025504 | 49 | 262 | 0.0 | 2.6 | 0.00 | 0.00 | 0.00 | 50 | 1012.7 |
| 20260504025005 | 49 | 301 | 0.0 | 2.6 | 0.00 | 0.00 | 0.00 | 51 | 1012.8 |
| 20260504024534 | 49 | 263 | 0.0 | 2.6 | 0.00 | 0.00 | 0.00 | 49 | 1012.7 |
| 20260504024007 | 50 | 232 | 0.9 | 2.6 | 0.00 | 0.00 | 0.00 | 48 | 1012.8 |
| 20260504023504 | 50 | 259 | 0.0 | 3.5 | 0.00 | 0.00 | 0.00 | 48 | 1012.8 |
| 20260504023017 | 50 | 265 | 0.0 | 3.5 | 0.00 | 0.00 | 0.00 | 47 | 1012.9 |
| 20260504022505 | 50 | 255 | 0.9 | 2.6 | 0.00 | 0.00 | 0.00 | 47 | 1012.8 |
| 20260504022012 | 50 | 246 | 0.9 | 2.6 | 0.00 | 0.00 | 0.00 | 47 | 1012.9 |
| 20260504021519 | 51 | 269 | 0.0 | 6.1 | 0.00 | 0.00 | 0.00 | 47 | 1012.8 |
| 20260504021007 | 51 | 269 | 0.9 | 6.1 | 0.00 | 0.00 | 0.00 | 46 | 1012.8 |
| 20260504020507 | 51 | 241 | 0.9 | 3.5 | 0.00 | 0.00 | 0.00 | 46 | 1012.8 |
| 20260504020004 | 51 | 263 | 2.6 | 3.5 | 0.00 | 0.00 | 0.00 | 45 | 1012.7 |
| 20260504015503 | 51 | 249 | 0.9 | 6.1 | 0.00 | 0.00 | 0.00 | 45 | 1012.7 |
| 20260504015003 | 51 | 252 | 2.6 | 7.0 | 0.00 | 0.00 | 0.00 | 45 | 1012.7 |
| 20260504014510 | 51 | 252 | 3.5 | 7.0 | 0.00 | 0.00 | 0.00 | 46 | 1012.7 |
| 20260504014007 | 51 | 223 | 0.9 | 5.2 | 0.00 | 0.00 | 0.00 | 46 | 1012.7 |
| 20260504013506 | 51 | 257 | 2.6 | 6.1 | 0.00 | 0.00 | 0.00 | 45 | 1012.6 |
| 20260504013017 | 51 | 247 | 2.6 | 6.1 | 0.00 | 0.00 | 0.00 | 44 | 1012.7 |
| 20260504012505 | 51 | 257 | 2.6 | 6.1 | 0.00 | 0.00 | 0.00 | 45 | 1012.6 |
| 20260504012007 | 51 | 250 | 2.6 | 5.2 | 0.00 | 0.00 | 0.00 | 44 | 1012.5 |
| 20260504011517 | 51 | 261 | 1.7 | 5.2 | 0.00 | 0.00 | 0.00 | 44 | 1012.4 |
| 20260504011006 | 51 | 246 | 2.6 | 5.2 | 0.00 | 0.00 | 0.00 | 44 | 1012.4 |
| 20260504010512 | 51 | 252 | 1.7 | 3.5 | 0.00 | 0.00 | 0.00 | 45 | 1012.4 |
| 20260504010020 | 51 | 254 | 1.7 | 3.5 | 0.00 | 0.00 | 0.00 | 45 | 1012.3 |
| 20260504005507 | 51 | 270 | 1.7 | 3.5 | 0.00 | 0.00 | 0.00 | 45 | 1012.3 |
| 20260504005007 | 51 | 267 | 0.9 | 3.5 | 0.00 | 0.00 | 0.00 | 46 | 1012.3 |
| 20260504004538 | 51 | 258 | 1.7 | 3.5 | 0.00 | 0.00 | 0.00 | 45 | 1012.2 |
| 20260504004003 | 51 | 254 | 0.0 | 3.5 | 0.00 | 0.00 | 0.00 | 45 | 1012.2 |
| 20260504003505 | 51 | 236 | 0.9 | 3.5 | 0.00 | 0.00 | 0.00 | 44 | 1012.2 |
| 20260504003011 | 51 | 246 | 0.9 | 3.5 | 0.00 | 0.00 | 0.00 | 44 | 1012.1 |
| 20260504002506 | 52 | 254 | 0.9 | 2.6 | 0.00 | 0.00 | 0.00 | 43 | 1012.1 |
| 20260504002005 | 52 | 273 | 0.9 | 2.6 | 0.00 | 0.00 | 0.00 | 44 | 1012.0 |
| 20260504001514 | 52 | 273 | 0.0 | 2.6 | 0.00 | 0.00 | 0.00 | 44 | 1012.1 |
| 20260504001010 | 52 | 271 | 0.9 | 4.3 | 0.00 | 0.00 | 0.00 | 42 | 1012.1 |
| 20260504000505 | 52 | 259 | 1.7 | 4.3 | 0.00 | 0.00 | 0.00 | 42 | 1012.0 |
| 20260504000021 | 53 | 238 | 0.9 | 3.5 | 0.00 | 0.00 | 0.00 | 42 | 1012.0 |
| 20260503235506 | 53 | 263 | 0.9 | 3.5 | 0.00 | 0.00 | 0.00 | 42 | 1012.0 |
| 20260503235010 | 53 | 247 | 1.7 | 3.5 | 0.00 | 0.00 | 0.00 | 42 | 1012.0 |
| 20260503234529 | 53 | 252 | 0.9 | 3.5 | 0.00 | 0.00 | 0.00 | 41 | 1012.0 |
| 20260503234007 | 53 | 262 | 0.0 | 3.5 | 0.00 | 0.00 | 0.00 | 42 | 1012.0 |
| 20260503233503 | 53 | 263 | 1.7 | 3.5 | 0.00 | 0.00 | 0.00 | 42 | 1012.0 |
| 20260503233007 | 53 | 263 | 0.0 | 3.5 | 0.00 | 0.00 | 0.00 | 42 | 1011.9 |
| 20260503232504 | 54 | 263 | 0.9 | 3.5 | 0.00 | 0.00 | 0.00 | 41 | 1011.8 |
| 20260503232004 | 54 | 259 | 0.9 | 2.6 | 0.00 | 0.00 | 0.00 | 41 | 1011.7 |
| 20260503231514 | 54 | 231 | 0.9 | 2.6 | 0.00 | 0.00 | 0.00 | 41 | 1011.7 |
| 20260503231007 | 54 | 275 | 0.0 | 1.7 | 0.00 | 0.00 | 0.00 | 40 | 1011.7 |
| 20260503230505 | 54 | 269 | 0.0 | 2.6 | 0.00 | 0.00 | 0.00 | 41 | 1011.7 |
| 20260503230018 | 54 | 258 | 0.9 | 2.6 | 0.00 | 0.00 | 0.00 | 39 | 1011.6 |
| 20260503225505 | 54 | 283 | 0.9 | 1.7 | 0.00 | 0.00 | 0.00 | 40 | 1011.7 |
| 20260503225008 | 54 | 352 | 0.9 | 2.6 | 0.00 | 0.00 | 0.00 | 41 | 1011.8 |
| 20260503224521 | 55 | 254 | 0.9 | 2.6 | 0.00 | 0.00 | 0.00 | 39 | 1011.7 |
| 20260503224008 | 55 | 273 | 0.9 | 2.6 | 0.00 | 0.00 | 0.00 | 39 | 1011.7 |
| 20260503223507 | 55 | 276 | 0.9 | 5.2 | 0.00 | 0.00 | 0.00 | 39 | 1011.7 |
| 20260503223025 | 55 | 284 | 0.0 | 5.2 | 0.00 | 0.00 | 0.00 | 39 | 1011.7 |
| 20260503222506 | 55 | 127 | 0.9 | 6.1 | 0.00 | 0.00 | 0.00 | 40 | 1011.7 |
| 20260503222004 | 55 | 231 | 1.7 | 6.1 | 0.00 | 0.00 | 0.00 | 39 | 1011.6 |
| 20260503221510 | 55 | 281 | 0.9 | 6.1 | 0.00 | 0.00 | 0.00 | 37 | 1011.6 |
| 20260503221004 | 56 | 263 | 1.7 | 3.5 | 0.00 | 0.00 | 0.00 | 36 | 1011.7 |
| 20260503220504 | 56 | 293 | 0.0 | 2.6 | 0.00 | 0.00 | 0.00 | 38 | 1011.7 |
| 20260503220016 | 56 | 257 | 0.9 | 2.6 | 0.00 | 0.00 | 0.00 | 38 | 1011.7 |
| 20260503215505 | 56 | 318 | 0.9 | 7.0 | 0.00 | 0.00 | 0.00 | 38 | 1011.6 |
| 20260503215005 | 56 | 265 | 1.7 | 7.0 | 0.00 | 0.00 | 0.00 | 37 | 1011.6 |
| 20260503214519 | 56 | 279 | 0.9 | 6.1 | 0.00 | 0.00 | 0.00 | 39 | 1011.6 |
| 20260503214011 | 56 | 255 | 2.6 | 5.2 | 0.00 | 0.00 | 0.00 | 37 | 1011.5 |
| 20260503213512 | 56 | 205 | 1.7 | 4.3 | 0.00 | 0.00 | 0.00 | 38 | 1011.4 |
| 20260503213028 | 56 | 110 | 1.7 | 4.3 | 0.00 | 0.00 | 0.00 | 37 | 1011.4 |
| 20260503212507 | 56 | 277 | 1.7 | 8.7 | 0.00 | 0.00 | 0.00 | 36 | 1011.3 |
| 20260503212010 | 57 | 242 | 1.7 | 8.7 | 0.00 | 0.00 | 0.00 | 38 | 1011.3 |
| 20260503211536 | 57 | 261 | 1.7 | 7.0 | 0.00 | 0.00 | 0.00 | 37 | 1011.1 |
| 20260503211010 | 57 | 273 | 0.9 | 7.0 | 0.00 | 0.00 | 0.00 | 36 | 1011.2 |
| 20260503210504 | 57 | 271 | 1.7 | 4.3 | 0.00 | 0.00 | 0.00 | 38 | 1011.3 |
| 20260503210012 | 57 | 292 | 1.7 | 4.3 | 0.00 | 0.00 | 0.00 | 35 | 1011.4 |
| 20260503205506 | 57 | 271 | 1.7 | 4.3 | 0.00 | 0.00 | 0.00 | 36 | 1011.4 |
| 20260503205004 | 57 | 227 | 0.9 | 3.5 | 0.00 | 0.00 | 0.00 | 37 | 1011.4 |
| 20260503204520 | 58 | 338 | 0.9 | 3.5 | 0.00 | 0.00 | 0.00 | 35 | 1011.4 |
| 20260503204009 | 58 | 223 | 1.7 | 6.1 | 0.00 | 0.00 | 0.00 | 34 | 1011.5 |
| 20260503203507 | 58 | 275 | 0.9 | 6.1 | 0.00 | 0.00 | 0.00 | 39 | 1011.5 |
| 20260503203024 | 58 | 241 | 2.6 | 5.2 | 0.00 | 0.00 | 0.00 | 35 | 1011.5 |
| 20260503202508 | 58 | 300 | 1.7 | 5.2 | 0.00 | 0.00 | 0.00 | 35 | 1011.5 |
| 20260503202012 | 58 | 270 | 1.7 | 7.0 | 0.00 | 0.00 | 0.00 | 36 | 1011.5 |
| 20260503201525 | 58 | 252 | 0.9 | 10.4 | 0.00 | 0.00 | 0.00 | 38 | 1011.5 |
| 20260503201006 | 59 | 243 | 2.6 | 10.4 | 0.00 | 0.00 | 0.00 | 35 | 1011.4 |
| 20260503200513 | 58 | 299 | 1.7 | 5.2 | 0.00 | 0.00 | 0.00 | 36 | 1011.4 |
| 20260503200028 | 58 | 279 | 2.6 | 5.2 | 0.00 | 0.00 | 0.00 | 36 | 1011.2 |
| 20260503195507 | 58 | 236 | 0.9 | 4.3 | 0.00 | 0.00 | 0.00 | 37 | 1011.6 |
| 20260503195006 | 58 | 229 | 1.7 | 7.8 | 0.00 | 0.00 | 0.00 | 34 | 1011.8 |
| 20260503194515 | 58 | 217 | 1.7 | 7.8 | 0.00 | 0.00 | 0.00 | 34 | 1011.8 |
| 20260503194006 | 58 | 235 | 2.6 | 7.0 | 0.00 | 0.00 | 0.00 | 36 | 1011.9 |
| 20260503193509 | 57 | 269 | 1.7 | 3.5 | 0.00 | 0.00 | 0.00 | 35 | 1011.9 |
| 20260503193011 | 57 | 250 | 1.7 | 5.2 | 0.00 | 0.00 | 0.00 | 35 | 1011.9 |
| 20260503192502 | 57 | 263 | 1.7 | 6.1 | 0.00 | 0.00 | 0.00 | 40 | 1012.0 |
| 20260503192002 | 57 | 274 | 1.7 | 6.1 | 0.00 | 0.00 | 0.00 | 36 | 1011.9 |
| 20260503191506 | 57 | 243 | 2.6 | 6.1 | 0.00 | 0.00 | 0.00 | 37 | 1012.0 |
| 20260503191006 | 57 | 277 | 1.7 | 7.8 | 0.00 | 0.00 | 0.00 | 34 | 1012.0 |
| 20260503190512 | 57 | 342 | 2.6 | 7.8 | 0.00 | 0.00 | 0.00 | 36 | 1012.1 |
| 20260503190018 | 57 | 309 | 3.5 | 7.0 | 0.00 | 0.00 | 0.00 | 34 | 1012.2 |
| 20260503185504 | 57 | 259 | 1.7 | 7.0 | 0.00 | 0.00 | 0.00 | 36 | 1012.1 |
| 20260503185003 | 57 | 305 | 1.7 | 5.2 | 0.00 | 0.00 | 0.00 | 38 | 1012.3 |
| 20260503184517 | 57 | 279 | 1.7 | 5.2 | 0.00 | 0.00 | 0.00 | 35 | 1012.2 |
| 20260503184006 | 57 | 159 | 0.9 | 7.8 | 0.00 | 0.00 | 0.00 | 38 | 1012.4 |
| 20260503183507 | 57 | 242 | 2.6 | 7.8 | 0.00 | 0.00 | 0.00 | 38 | 1012.4 |
| 20260503183029 | 57 | 336 | 1.7 | 5.2 | 0.00 | 0.00 | 0.00 | 39 | 1012.5 |
| 20260503182504 | 56 | 232 | 0.9 | 7.0 | 0.00 | 0.00 | 0.00 | 38 | 1012.6 |
| 20260503182014 | 56 | 257 | 1.7 | 7.0 | 0.00 | 0.00 | 0.00 | 42 | 1012.7 |
| 20260503181525 | 56 | 261 | 1.7 | 6.1 | 0.00 | 0.00 | 0.00 | 42 | 1012.7 |
| 20260503181004 | 55 | 263 | 1.7 | 7.0 | 0.00 | 0.00 | 0.00 | 41 | 1012.6 |
| 20260503180511 | 55 | 227 | 2.6 | 7.0 | 0.00 | 0.00 | 0.00 | 38 | 1012.7 |
| 20260503180008 | 54 | 275 | 0.9 | 7.0 | 0.00 | 0.00 | 0.00 | 42 | 1012.7 |
| 20260503175506 | 54 | 273 | 2.6 | 6.1 | 0.00 | 0.00 | 0.00 | 40 | 1012.7 |
| 20260503175009 | 54 | 214 | 3.5 | 6.1 | 0.00 | 0.00 | 0.00 | 37 | 1012.7 |
| 20260503174511 | 54 | 218 | 1.7 | 5.2 | 0.00 | 0.00 | 0.00 | 39 | 1012.9 |
| 20260503174006 | 53 | 280 | 1.7 | 7.0 | 0.00 | 0.00 | 0.00 | 39 | 1012.9 |
| 20260503173507 | 53 | 318 | 0.9 | 7.0 | 0.00 | 0.00 | 0.00 | 39 | 1013.0 |
| 20260503173019 | 53 | 278 | 2.6 | 7.0 | 0.00 | 0.00 | 0.00 | 42 | 1013.0 |
| 20260503172506 | 52 | 215 | 0.9 | 7.0 | 0.00 | 0.00 | 0.00 | 38 | 1013.0 |
| 20260503172010 | 54 | 166 | 2.6 | 7.0 | 0.00 | 0.00 | 0.00 | 37 | 1013.0 |
| 20260503171504 | 54 | 257 | 2.6 | 7.0 | 0.00 | 0.00 | 0.00 | 39 | 1013.0 |
| 20260503171003 | 54 | 263 | 2.6 | 7.8 | 0.00 | 0.00 | 0.00 | 43 | 1013.0 |
| 20260503170508 | 53 | 303 | 2.6 | 7.8 | 0.00 | 0.00 | 0.00 | 42 | 1013.2 |
| 20260503151006 | 49 | 211 | 1.7 | 9.6 | 0.00 | 0.00 | 0.00 | 42 | 1013.8 |
| 20260503150507 | 48 | 346 | 1.7 | 5.2 | 0.00 | 0.00 | 0.00 | 46 | 1013.8 |
| 20260503131006 | 44 | 261 | 0.9 | 6.1 | 0.00 | 0.00 | 0.00 | 62 | 1014.3 |
| 20260503130503 | 44 | 278 | 0.9 | 6.1 | 0.00 | 0.00 | 0.00 | 61 | 1014.3 |
| 20260503110505 | 37 | 261 | 0.0 | 1.7 | 0.00 | 0.00 | 0.00 | 71 | 1013.7 |